SQ5DCP-1 Weather Reports


Display with metric or nautical units.
time (UTC)temp
F
wind
direction
speed
MPH
gust
MPH
rain 1hr
in
rain 24hr
in
rain mn
in
humidity
%
barometer
mb
20260504034526 49 109 1.0 2.0 0.00 0.00 0.00 62 1015.3
20260504034024 49 108 1.0 1.0 0.00 0.00 0.00 62 1015.3
20260504033522 50 103 1.0 2.0 0.00 0.00 0.00 62 1015.3
20260504033020 50 105 1.0 3.0 0.00 0.00 0.00 62 1015.3
20260504032518 50 105 1.0 1.0 0.00 0.00 0.00 62 1015.2
20260504032017 50 105 1.0 1.0 0.00 0.00 0.00 62 1015.2
20260504031535 50 107 1.0 2.0 0.00 0.00 0.00 62 1015.3
20260504031032 50 105 1.0 2.0 0.00 0.00 0.00 61 1015.3
20260504030531 50 106 1.0 2.0 0.00 0.00 0.00 61 1015.4
20260504030029 50 107 1.0 2.0 0.00 0.00 0.00 61 1015.3
20260504025527 50 108 1.0 2.0 0.00 0.00 0.00 61 1015.3
20260504025025 50 106 1.0 1.0 0.00 0.00 0.00 60 1015.3
20260504024523 51 106 1.0 2.0 0.00 0.00 0.00 60 1015.4
20260504024021 51 104 1.0 2.0 0.00 0.00 0.00 60 1015.3
20260504023519 51 104 1.0 2.0 0.00 0.00 0.00 61 1015.4
20260504023353 51 104 1.0 2.0 0.00 0.00 0.00 61 1015.3
20260504023017 51 104 1.0 2.0 0.00 0.00 0.00 61 1015.3
20260504022536 51 108 2.0 3.0 0.00 0.00 0.00 61 1015.3
20260504022119 51 117 2.0 2.0 0.00 0.00 0.00 61 1015.5
20260504022033 51 117 2.0 2.0 0.00 0.00 0.00 61 1015.5
20260504021532 51 124 2.0 2.0 0.00 0.00 0.00 61 1015.4
20260504021030 51 127 2.0 2.0 0.00 0.00 0.00 61 1015.4
20260504020527 51 148 1.0 2.0 0.00 0.00 0.00 60 1015.4
20260504020026 51 0.0 0.0 0.00 0.00 0.00 59 1015.5
20260504015524 52 0.0 0.0 0.00 0.00 0.00 58 1015.5
20260504015022 52 0.0 0.0 0.00 0.00 0.00 58 1015.6
20260504014520 52 0.0 0.0 0.00 0.00 0.00 58 1015.6
20260504014018 52 0.0 0.0 0.00 0.00 0.00 58 1015.6
20260504013516 52 0.0 0.0 0.00 0.00 0.00 58 1015.6
20260504013035 52 0.0 0.0 0.00 0.00 0.00 58 1015.6
20260504012533 52 0.0 0.0 0.00 0.00 0.00 58 1015.5
20260504012031 52 0.0 0.0 0.00 0.00 0.00 58 1015.6
20260504011529 53 156 0.0 1.0 0.00 0.00 0.00 57 1015.6
20260504011027 53 167 0.0 1.0 0.00 0.00 0.00 57 1015.6
20260504010525 53 0.0 0.0 0.00 0.00 0.00 57 1015.6
20260504010023 53 0.0 0.0 0.00 0.00 0.00 57 1015.6
20260504005521 53 140 1.0 1.0 0.00 0.00 0.00 57 1015.6
20260504005019 53 144 1.0 2.0 0.00 0.00 0.00 57 1015.6
20260504004643 53 235 0.0 1.0 0.00 0.00 0.00 57 1015.6
20260504004518 53 0.0 0.0 0.00 0.00 0.00 57 1015.6
20260504004048 53 235 0.0 1.0 0.00 0.00 0.00 57 1015.6
20260504004016 53 235 0.0 1.0 0.00 0.00 0.00 57 1015.6
20260504003534 53 234 0.0 1.0 0.00 0.00 0.00 57 1015.7
20260504003032 53 212 0.0 1.0 0.00 0.00 0.00 57 1015.7
20260504002530 54 0.0 0.0 0.00 0.00 0.00 57 1015.8
20260504002028 54 216 0.0 2.0 0.00 0.00 0.00 56 1015.7
20260504001526 54 220 0.0 2.0 0.00 0.00 0.00 56 1015.8
20260504001024 54 231 0.0 3.0 0.00 0.00 0.00 55 1015.8
20260504000523 54 0.0 0.0 0.00 0.00 0.00 55 1015.8
20260504000020 54 0.0 0.0 0.00 0.00 0.00 55 1015.8
20260503235519 54 0.0 0.0 0.00 0.00 0.00 55 1015.8
20260503235017 54 216 0.0 2.0 0.00 0.00 0.00 54 1015.8
20260503234535 55 221 1.0 3.0 0.00 0.00 0.00 54 1015.8
20260503234033 55 233 0.0 2.0 0.00 0.00 0.00 54 1015.8
20260503233531 55 0.0 0.0 0.00 0.00 0.00 53 1015.8
20260503233030 55 0.0 0.0 0.00 0.00 0.00 53 1015.7
20260503232527 55 216 0.0 1.0 0.00 0.00 0.00 53 1015.7
20260503232027 55 197 0.0 2.0 0.00 0.00 0.00 53 1015.7
20260503231525 55 203 0.0 1.0 0.00 0.00 0.00 53 1015.7
20260503231022 55 191 1.0 3.0 0.00 0.00 0.00 53 1015.7
20260503230520 55 187 1.0 3.0 0.00 0.00 0.00 53 1015.7
20260503230019 55 196 1.0 2.0 0.00 0.00 0.00 52 1015.8
20260503225517 56 214 0.0 1.0 0.00 0.00 0.00 52 1015.8
20260503225035 56 193 1.0 3.0 0.00 0.00 0.00 52 1015.7
20260503224533 56 195 1.0 3.0 0.00 0.00 0.00 51 1015.8
20260503224033 56 207 1.0 2.0 0.00 0.00 0.00 51 1015.8
20260503223529 56 212 1.0 2.0 0.00 0.00 0.00 51 1015.7
20260503223027 56 230 0.0 1.0 0.00 0.00 0.00 50 1015.7
20260503222526 57 208 1.0 2.0 0.00 0.00 0.00 50 1015.7
20260503222024 57 200 1.0 3.0 0.00 0.00 0.00 50 1015.6
20260503221522 57 192 1.0 3.0 0.00 0.00 0.00 50 1015.6
20260503221020 57 184 2.0 4.0 0.00 0.00 0.00 50 1015.7
20260503220518 57 181 3.0 6.0 0.00 0.00 0.00 50 1015.6
20260503220016 57 185 3.0 6.0 0.00 0.00 0.00 50 1015.7
20260503215534 57 195 2.0 3.0 0.00 0.00 0.00 50 1015.6
20260503215033 57 186 2.0 4.0 0.00 0.00 0.00 49 1015.6
20260503214531 57 188 2.0 6.0 0.00 0.00 0.00 49 1015.7
20260503214049 58 183 80.0 3.0 0.00 0.00 0.00 48 1015.6
20260503214029 58 183 1.0 3.0 0.00 0.00 0.00 48 1015.6
20260503213527 58 0.0 0.0 0.00 0.00 0.00 48 1015.5
20260503213025 58 0.0 0.0 0.00 0.00 0.00 47 1015.6
20260503212523 58 0.0 0.0 0.00 0.00 0.00 47 1015.6
20260503212022 59 0.0 0.0 0.00 0.00 0.00 47 1015.6
20260503211520 59 0.0 0.0 0.00 0.00 0.00 47 1015.6
20260503211050 59 0.0 0.0 0.00 0.00 0.00 47 1015.6
20260503211018 59 0.0 0.0 0.00 0.00 0.00 47 1015.6
20260503210516 59 0.0 0.0 0.00 0.00 0.00 47 1015.7
20260503210034 59 0.0 0.0 0.00 0.00 0.00 46 1015.7
20260503205532 59 0.0 0.0 0.00 0.00 0.00 46 1015.7
20260503205030 60 0.0 0.0 0.00 0.00 0.00 46 1015.7
20260503204528 60 0.0 0.0 0.00 0.00 0.00 45 1015.6
20260503204027 60 0.0 0.0 0.00 0.00 0.00 45 1015.5
20260503203525 61 0.0 0.0 0.00 0.00 0.00 44 1015.6
20260503203023 61 0.0 0.0 0.00 0.00 0.00 44 1015.6
20260503202521 61 0.0 0.0 0.00 0.00 0.00 44 1015.6
20260503202019 61 0.0 0.0 0.00 0.00 0.00 43 1015.6
20260503201517 62 0.0 0.0 0.00 0.00 0.00 43 1015.6
20260503201034 62 0.0 0.0 0.00 0.00 0.00 42 1015.6
20260503200533 62 0.0 0.0 0.00 0.00 0.00 42 1015.6
20260503200031 63 0.0 0.0 0.00 0.00 0.00 42 1015.7
20260503195528 63 0.0 0.0 0.00 0.00 0.00 41 1015.7
20260503195026 63 0.0 0.0 0.00 0.00 0.00 41 1015.7
20260503194525 64 207 0.0 1.0 0.00 0.00 0.00 41 1015.7
20260503194023 64 196 0.0 1.0 0.00 0.00 0.00 40 1015.7
20260503193521 64 196 1.0 1.0 0.00 0.00 0.00 40 1015.7
20260503193051 64 192 1.0 3.0 0.00 0.00 0.00 40 1015.7
20260503193019 64 192 1.0 3.0 0.00 0.00 0.00 40 1015.7
20260503192517 65 187 2.0 4.0 0.00 0.00 0.00 39 1015.7
20260503192035 65 179 2.0 3.0 0.00 0.00 0.00 39 1015.7
20260503191532 66 182 2.0 3.0 0.00 0.00 0.00 38 1015.6
20260503191030 66 183 2.0 3.0 0.00 0.00 0.00 38 1015.7
20260503190529 66 187 3.0 4.0 0.00 0.00 0.00 37 1015.6
20260503190027 67 185 3.0 4.0 0.00 0.00 0.00 37 1015.6
20260503185525 67 186 2.0 4.0 0.00 0.00 0.00 37 1015.6
20260503185024 68 184 2.0 4.0 0.00 0.00 0.00 36 1015.5
20260503184521 68 186 2.0 4.0 0.00 0.00 0.00 36 1015.5
20260503184019 69 182 2.0 3.0 0.00 0.00 0.00 35 1015.5
20260503183518 69 188 2.0 4.0 0.00 0.00 0.00 35 1015.5
20260503183035 70 183 3.0 4.0 0.00 0.00 0.00 34 1015.6
20260503182534 70 184 3.0 4.0 0.00 0.00 0.00 34 1015.6
20260503182031 71 186 3.0 3.0 0.00 0.00 0.00 33 1015.5
20260503181528 71 182 2.0 4.0 0.00 0.00 0.00 32 1015.3
20260503181027 72 184 2.0 4.0 0.00 0.00 0.00 32 1015.4
20260503180525 72 189 2.0 4.0 0.00 0.00 0.00 31 1015.4
20260503180024 72 182 2.0 7.0 0.00 0.00 0.00 31 1015.4
20260503175521 72 184 2.0 6.0 0.00 0.00 0.00 31 1015.3
20260503175019 73 187 2.0 3.0 0.00 0.00 0.00 30 1015.3
20260503174516 73 193 2.0 4.0 0.00 0.00 0.00 30 1015.2
20260503174034 73 187 2.0 4.0 0.00 0.00 0.00 30 1015.3
20260503173533 74 186 3.0 7.0 0.00 0.00 0.00 30 1015.2
20260503173031 74 183 2.0 7.0 0.00 0.00 0.00 29 1015.2
20260503172529 74 184 3.0 7.0 0.00 0.00 0.00 29 1015.3
20260503172219 74 192 3.0 4.0 0.00 0.00 0.00 28 1015.3
20260503172027 74 192 3.0 4.0 0.00 0.00 0.00 28 1015.3
20260503171525 74 192 2.0 6.0 0.00 0.00 0.00 28 1015.4
20260503171023 75 190 3.0 9.0 0.00 0.00 0.00 28 1015.3
20260503170521 75 193 3.0 7.0 0.00 0.00 0.00 27 1015.3
20260503150533 77 194 7.0 14.0 0.00 0.00 0.00 26 1015.9
20260503131018 79 198 6.0 14.0 0.00 0.00 0.00 27 1017.1
20260503130517 79 246 6.0 13.0 0.00 0.00 0.00 27 1017.1
20260503110530 77 219 6.0 14.0 0.00 0.00 0.00 27 1018.3
20260503081525 70 240 6.0 14.0 0.00 0.00 0.00 37 1019.7
20260503081024 70 196 8.0 17.0 0.00 0.00 0.00 37 1019.8
20260503080521 69 183 10.0 19.0 0.00 0.00 0.00 38 1019.9
20260503072527 66 211 4.0 11.0 0.00 0.00 0.00 45 1019.8
20260503072025 66 215 5.0 16.0 0.00 0.00 0.00 45 1019.9
20260503071523 65 243 5.0 11.0 0.00 0.00 0.00 45 1020.0
20260503071021 65 236 5.0 13.0 0.00 0.00 0.00 45 1020.0
20260503070519 64 247 6.0 15.0 0.00 0.00 0.00 45 1019.9
20260503055032 57 191 4.0 8.0 0.00 0.00 0.00 58 1019.8
20260503054530 56 209 3.0 9.0 0.00 0.00 0.00 59 1019.9
20260503054028 55 216 3.0 9.0 0.00 0.00 0.00 60 1020.0
20260503053526 55 235 2.0 6.0 0.00 0.00 0.00 61 1020.0
20260503053024 54 222 2.0 7.0 0.00 0.00 0.00 63 1020.0
20260503052522 54 205 2.0 6.0 0.00 0.00 0.00 63 1019.9
20260503052020 53 200 2.0 4.0 0.00 0.00 0.00 64 1019.9
20260503051519 53 188 2.0 6.0 0.00 0.00 0.00 65 1019.9
20260503051049 52 185 2.0 4.0 0.00 0.00 0.00 66 1019.9
20260503051016 52 185 2.0 4.0 0.00 0.00 0.00 66 1019.9
20260503050535 51 183 0.0 3.0 0.00 0.00 0.00 66 1019.9
20260503050033 51 200 0.0 2.0 0.00 0.00 0.00 66 1020.0
20260503045531 51 188 1.0 2.0 0.00 0.00 0.00 66 1020.0
20260503045029 50 191 1.0 3.0 0.00 0.00 0.00 67 1020.0
20260503044527 50 192 1.0 2.0 0.00 0.00 0.00 67 1020.0
20260503044048 49 181 100.0 2.0 0.00 0.00 0.00 68 1019.9
20260503044026 49 181 1.0 2.0 0.00 0.00 0.00 68 1019.9
20260503043523 49 0.0 0.0 0.00 0.00 0.00 67 1020.0
20260503043022 49 0.0 0.0 0.00 0.00 0.00 67 1020.0
20260503042520 48 0.0 0.0 0.00 0.00 0.00 67 1019.9
20260503042049 48 0.0 0.0 0.00 0.00 0.00 68 1019.9
20260503042018 48 0.0 0.0 0.00 0.00 0.00 68 1019.9
20260503041516 48 0.0 0.0 0.00 0.00 0.00 68 1019.9
20260503041034 48 0.0 0.0 0.00 0.00 0.00 68 1019.8
20260503040532 48 192 0.0 1.0 0.00 0.00 0.00 68 1019.8
20260503040030 48 0.0 0.0 0.00 0.00 0.00 67 1019.9
20260503035528 47 0.0 0.0 0.00 0.00 0.00 67 1019.8
20260503035026 47 0.0 0.0 0.00 0.00 0.00 67 1019.8